Weather History for Wheeler AAF, HI

Change the Weather History Date:

Saturday, January 19, 2013

  Actual Average Record
Temperature  
Mean Temperature 66 °F -  
Max Temperature 72 °F 74 °F 80 °F (2012)
Min Temperature 59 °F 61 °F 54 °F (2009)
Growing Degree Days 16 (Base 50)    
Moisture  
Dew Point 54 °F    
Average Humidity 66    
Maximum Humidity 79    
Minimum Humidity 49    
Precipitation  
Precipitation 0.00 in - - ()
Sea Level Pressure  
Sea Level Pressure 29.96 in    
Wind  
Wind Speed 7 mph (NNW)    
Max Wind Speed 18 mph    
Max Gust Speed 26 mph    
Visibility 10 miles    
Events      
Averages and records for this station are not official NWS values.
T = Trace of Precipitation, MM = Missing Value Source: NWS Daily Summary

Daily Weather History Graph

Daily Weather History Graph

Search for Another Location

Airport:

Trip Planner

Search our weather history database for the weather conditions in past years. The results will help you decide how hot, cold, wet, or windy it might be!

Date:

Astronomy

Jan. 19, 2013 Rise Set
Actual Time 7:12 AM HST 6:13 PM HST
Civil Twilight 6:48 AM HST 6:37 PM HST
Nautical Twilight 6:21 AM HST 7:04 PM HST
Astronomical Twilight 5:54 AM HST 7:31 PM HST
Moon 12:39 PM HST (1/19) 1:07 AM HST (1/19)
Length of Visible Light 11h 48m
Length of Day
11h 01m
First Quarter, 59% of the Moon is Illuminated
Jan 19
First Quarter
Jan 26
Full
Feb 3
Last Quarter
Feb 9
New
Feb 17
First Quarter

Hourly Weather History & Observations

Time (HST) Temp. Dew Point Humidity Pressure Visibility Wind Dir Wind Speed Gust Speed Precip Events Conditions
12:55 AM 61.2 °F 53.4 °F 76% 29.92 in 10.0 mi Calm Calm - N/A   Mostly Cloudy
1:55 AM 59.7 °F 52.7 °F 78% 29.93 in 10.0 mi Calm Calm - N/A   Clear
2:55 AM 59.9 °F 53.2 °F 79% 29.92 in 10.0 mi Variable 3.5 mph - N/A   Clear
3:55 AM 60.6 °F 51.6 °F 72% 29.92 in 10.0 mi North 8.1 mph - N/A   Clear
4:55 AM 61.0 °F 51.6 °F 71% 29.92 in 10.0 mi North 8.1 mph - N/A   Partly Cloudy
5:55 AM 61.2 °F 51.4 °F 70% 29.93 in 10.0 mi Variable 5.8 mph - N/A   Scattered Clouds
6:55 AM 61.3 °F 51.6 °F 70% 29.95 in 10.0 mi Variable 4.6 mph - N/A   Partly Cloudy
7:55 AM 62.4 °F 52.9 °F 71% 29.97 in 10.0 mi North 3.5 mph - N/A   Mostly Cloudy
8:55 AM 66.9 °F 54.7 °F 65% 29.97 in 10.0 mi NNW 10.4 mph - N/A   Partly Cloudy
9:55 AM 69.4 °F 54.0 °F 58% 29.98 in 10.0 mi NNW 17.3 mph 20.7 mph N/A   Clear
10:55 AM 71.4 °F 51.3 °F 49% 29.98 in 10.0 mi NNW 18.4 mph 24.2 mph N/A   Partly Cloudy
11:55 AM 72.0 °F 54.0 °F 53% 29.96 in 10.0 mi North 15.0 mph 24.2 mph N/A   Scattered Clouds
12:55 PM 71.6 °F 53.8 °F 53% 29.94 in 10.0 mi NNW 15.0 mph 26.5 mph N/A   Mostly Cloudy
1:55 PM 71.4 °F 56.5 °F 59% 29.91 in 10.0 mi NNW 13.8 mph 25.3 mph N/A   Mostly Cloudy
2:55 PM 70.9 °F 57.7 °F 63% 29.92 in 10.0 mi NNW 12.7 mph 19.6 mph N/A   Mostly Cloudy
3:55 PM 70.0 °F 54.7 °F 58% 29.92 in 10.0 mi NNW 17.3 mph - N/A   Scattered Clouds
4:55 PM 70.0 °F 54.0 °F 57% 29.94 in 10.0 mi North 16.1 mph 24.2 mph N/A   Scattered Clouds
5:55 PM 67.8 °F 55.0 °F 64% 29.97 in 10.0 mi North 12.7 mph 20.7 mph N/A   Clear
6:55 PM 65.3 °F 52.7 °F 64% 29.99 in 10.0 mi North 8.1 mph - N/A   Clear
7:55 PM 64.0 °F 53.1 °F 67% 30.01 in 10.0 mi NNW 6.9 mph - N/A   Partly Cloudy
8:55 PM 64.6 °F 53.4 °F 67% 30.02 in 10.0 mi Variable 6.9 mph - N/A   Clear
9:55 PM 64.4 °F 55.0 °F 72% 30.02 in 10.0 mi Variable 6.9 mph - N/A   Clear
10:55 PM 63.7 °F 55.0 °F 73% 30.02 in 10.0 mi North 8.1 mph - N/A   Clear
11:55 PM 62.8 °F 54.1 °F 73% 30.02 in 10.0 mi NNW 6.9 mph - N/A   Partly Cloudy